This demonstration page uses our WeatherBlox Daily Observations layout. Learn more.

Hourly Observations for November 8, 2020

Temp ( °F °C ) Dew Point ( °F °C ) Humidity (%) Winds ( mph kmh ) Pressure ( in mb ) Visibility ( mi km ) Precip ( " mm )
12:15 am 00:15 Clear 45 7 43 6 93 93 Calm 30.35 1028 10 16.0934 0 0
12:35 am 00:35 Clear 45 7 43 6 93 93 Calm 30.35 1028 10 16.0934 0 0
12:55 am 00:55 Clear 45 7 43 6 93 93 Calm 30.35 1028 10 16.0934 0 0
1:15 am 01:15 Clear 45 7 43 6 93 93 Calm 30.34 1027 10 16.0934 0 0
1:35 am 01:35 Clear 43 6 43 6 100 100 Calm 30.34 1028 10 16.0934 0 0
1:55 am 01:55 Clear 43 6 43 6 100 100 Calm 30.34 1028 10 16.0934 0 0
2:15 am 02:15 Clear 43 6 41 5 93 93 Calm 30.34 1028 10 16.0934 0 0
2:35 am 02:35 Clear 43 6 41 5 93 93 Calm 30.35 1028 10 16.0934 0 0
2:55 am 02:55 Clear 41 5 41 5 100 100 Calm 30.35 1028 10 16.0934 0 0
3:15 am 03:15 Clear 41 5 41 5 100 100 Calm 30.36 1028 10 16.0934 0 0
3:35 am 03:35 Clear 43 6 41 5 93 93 Calm 30.36 1028 10 16.0934 0 0
3:55 am 03:55 Clear 43 6 41 5 93 93 Calm 30.36 1028 10 16.0934 0 0
4:15 am 04:15 Clear 41 5 41 5 100 100 Calm 30.37 1029 10 16.0934 0 0
4:35 am 04:35 Clear 41 5 41 5 100 100 Calm 30.37 1029 10 16.0934 0 0
4:55 am 04:55 Clear 41 5 41 5 100 100 Calm 30.37 1029 10 16.0934 0 0
5:15 am 05:15 Clear 39 4 39 4 100 100 Calm 30.38 1029 10 16.0934 0 0
5:35 am 05:35 Clear 39 4 39 4 100 100 Calm 30.39 1029 10 16.0934 0 0
5:55 am 05:55 Clear 39 4 39 4 100 100 Calm 30.39 1029 10 16.0934 0 0
6:15 am 06:15 Clear 39 4 39 4 100 100 W 3 6 30.4 1029 10 16.0934 0 0
6:35 am 06:35 Clear 41 5 41 5 100 100 Calm 30.39 1029 10 16.0934 0 0
6:55 am 06:55 Sunny 39 4 39 4 100 100 Calm 30.41 1030 10 16.0934 0 0
7:15 am 07:15 Sunny 37 3 37 3 100 100 Calm 30.42 1030 10 16.0934 0 0
7:35 am 07:35 Sunny 41 5 41 5 100 100 Calm 30.41 1030 10 16.0934 0 0
7:55 am 07:55 Sunny 45 7 45 7 100 100 Calm 30.41 1030 10 16.0934 0 0
8:15 am 08:15 Sunny 46 8 45 7 93 93 Calm 30.42 1030 10 16.0934 0 0
8:35 am 08:35 Sunny 50 10 46 8 88 88 Calm 30.43 1030 10 16.0934 0 0
8:55 am 08:55 Sunny 52 11 46 8 82 82 Calm 30.42 1030 10 16.0934 0 0
9:15 am 09:15 Sunny 54 12 46 8 77 77 Calm 30.42 1030 10 16.0934 0 0
9:35 am 09:35 Sunny 57 14 46 8 67 67 Calm 30.41 1030 10 16.0934 0 0
9:55 am 09:55 Sunny 59 15 46 8 63 63 Calm 30.41 1030 10 16.0934 0 0
10:15 am 10:15 Sunny 61 16 48 9 63 63 Calm 30.41 1030 10 16.0934 0 0
10:35 am 10:35 Sunny N/A N/A N/A Calm N/A 10 16.0934 0 0
10:55 am 10:55 Sunny N/A N/A N/A Calm N/A 10 16.0934 0 0
11:15 am 11:15 Sunny N/A N/A N/A Calm N/A 10 16.0934 0 0
11:35 am 11:35 Sunny N/A N/A N/A Calm N/A 10 16.0934 0 0
11:55 am 11:55 Sunny N/A N/A N/A Calm N/A 10 16.0934 0 0
12:15 pm 12:15 Sunny N/A N/A N/A Calm N/A 10 16.0934 0 0
12:35 pm 12:35 Sunny N/A N/A N/A Calm N/A 10 16.0934 0 0
12:55 pm 12:55 Sunny N/A N/A N/A Calm N/A 10 16.0934 0 0
1:15 pm 13:15 Sunny N/A N/A N/A Calm N/A 10 16.0934 0 0
1:35 pm 13:35 Sunny N/A N/A N/A S 3 6 N/A 10 16.0934 0 0
1:55 pm 13:55 Sunny N/A N/A N/A SSE 5 7 N/A 10 16.0934 0 0
2:15 pm 14:15 Sunny N/A N/A N/A WSW 3 6 N/A 10 16.0934 0 0
2:35 pm 14:35 Sunny N/A N/A N/A S 3 6 N/A 10 16.0934 0 0
2:55 pm 14:55 Sunny N/A N/A N/A S 3 6 N/A 10 16.0934 0 0
3:15 pm 15:15 Sunny N/A N/A N/A Calm N/A 10 16.0934 0 0
3:35 pm 15:35 Sunny N/A N/A N/A Calm N/A 10 16.0934 0 0
3:55 pm 15:55 Sunny N/A N/A N/A Calm N/A 10 16.0934 0 0
4:15 pm 16:15 Sunny N/A N/A N/A Calm N/A 10 16.0934 0 0
4:35 pm 16:35 Sunny N/A N/A N/A Calm N/A 10 16.0934 0 0
4:55 pm 16:55 Sunny N/A N/A N/A Calm N/A 10 16.0934 0 0
5:15 pm 17:15 Clear N/A N/A N/A Calm N/A 10 16.0934 0 0
5:35 pm 17:35 Clear N/A N/A N/A Calm N/A 10 16.0934 0 0
5:55 pm 17:55 Clear N/A N/A N/A Calm N/A 10 16.0934 0 0
6:15 pm 18:15 Clear N/A N/A N/A Calm N/A 10 16.0934 0 0
6:35 pm 18:35 Clear N/A N/A N/A Calm N/A 10 16.0934 0 0
6:55 pm 18:55 Clear N/A N/A N/A Calm N/A 10 16.0934 0 0
7:15 pm 19:15 Clear 57 14 54 12 88 88 Calm 30.37 1028 10 16.0934 0 0
7:35 pm 19:35 Clear 55 13 54 12 94 94 Calm 30.37 1028 10 16.0934 0 0
7:55 pm 19:55 Clear 55 13 54 12 94 94 Calm 30.37 1028 10 16.0934 0 0
8:15 pm 20:15 Clear 55 13 52 11 88 88 Calm 30.38 1029 10 16.0934 0 0
8:35 pm 20:35 Clear 54 12 52 11 94 94 Calm 30.39 1029 10 16.0934 0 0
8:55 pm 20:55 Clear 54 12 52 11 94 94 Calm 30.39 1029 10 16.0934 0 0
9:15 pm 21:15 Clear 52 11 52 11 100 100 Calm 30.39 1029 10 16.0934 0 0
9:35 pm 21:35 Clear 52 11 52 11 100 100 Calm 30.4 1030 10 16.0934 0 0
9:55 pm 21:55 Clear 54 12 52 11 94 94 Calm 30.4 1030 10 16.0934 0 0
10:15 pm 22:15 Clear 54 12 52 11 94 94 Calm 30.39 1029 10 16.0934 0 0
10:35 pm 22:35 Clear 50 10 50 10 100 100 Calm 30.4 1029 10 16.0934 0 0
10:55 pm 22:55 Clear 50 10 50 10 100 100 Calm 30.4 1029 10 16.0934 0 0
11:15 pm 23:15 Clear 50 10 50 10 100 100 Calm 30.39 1029 10 16.0934 0 0
11:35 pm 23:35 Clear 50 10 48 9 94 94 Calm 30.39 1029 10 16.0934 0 0
11:55 pm 23:55 Clear 50 10 48 9 94 94 Calm 30.39 1029 10 16.0934 0 0

Powered by AerisWeather